Location: Peterborough
(44.3091°N, 78.3197°W)
Time: 04:57:24
(UTC-04:00)

Tiros 1 - Pass Details

Date: 04 April 2023
Orbit: 627 x 661 km, 48.4° (Epoch: 09 June)

Event Time Altitude Azimuth Distance (km) Brightness Sun altitude
Rises 05:11:21 0° 273° (W) 2,977 - -17.5°
Reaches altitude 10° 05:13:45 10° 279° (W) 2,070 - -17.1°
Exits shadow 05:15:29 22° 287° (WNW) 1,453 8.5 -16.8°
Maximum altitude 05:18:26 52° 356° (N) 819 7.8 -16.4°
Drops below altitude 10° 05:23:08 10° 73° (ENE) 2,078 11.1 -15.6°
Sets 05:25:32 0° 78° (ENE) 2,990 12.2 -15.2°
